Weather History for Patuxent River, MD

Change the Weather History Date:

Monday, January 21, 2013

  Actual Average Record
Temperature  
Mean Temperature 38 °F -  
Max Temperature 45 °F 38 °F 63 °F (2006)
Min Temperature 32 °F 24 °F -2 °F (1985)
Degree Days  
Heating Degree Days 26    
Moisture  
Dew Point 24 °F    
Average Humidity 56    
Maximum Humidity 73    
Minimum Humidity 44    
Precipitation  
Precipitation 0.00 in - - ()
Sea Level Pressure  
Sea Level Pressure 29.97 in    
Wind  
Wind Speed 9 mph (NE)    
Max Wind Speed 23 mph    
Max Gust Speed 32 mph    
Visibility 10 miles    
Events      
Averages and records for this station are not official NWS values.
T = Trace of Precipitation, MM = Missing Value Source: NWS Daily Summary

Daily Weather History Graph

Daily Weather History Graph

Search for Another Location

Airport:

Trip Planner

Search our weather history database for the weather conditions in past years. The results will help you decide how hot, cold, wet, or windy it might be!

Date:

Astronomy

Jan. 21, 2013 Rise Set
Actual Time 7:18 AM EST 5:16 PM EST
Civil Twilight 6:49 AM EST 5:44 PM EST
Nautical Twilight 6:17 AM EST 6:16 PM EST
Astronomical Twilight 5:46 AM EST 6:48 PM EST
Moon 12:54 PM EST 2:44 AM EST
Length of Visible Light 10h 54m
Length of Day
9h 57m
Waxing Gibbous, 75% of the Moon is Illuminated
Jan 21
Waxing Gibbous
Jan 26
Full
Feb 3
Last Quarter
Feb 10
New
Feb 17
First Quarter

Hourly Weather History & Observations

Time (EST) Temp. Windchill Dew Point Humidity Pressure Visibility Wind Dir Wind Speed Gust Speed Precip Events Conditions
12:52 AM 37.0 °F 32.4 °F 17.1 °F 44% 30.07 in 10.0 mi NNW 5.8 mph - N/A   Clear
1:52 AM 36.0 °F 33.3 °F 17.1 °F 46% 30.09 in 10.0 mi WNW 3.5 mph - N/A   Clear
2:52 AM 37.0 °F 31.0 °F 21.0 °F 52% 30.11 in 10.0 mi North 8.1 mph - N/A   Clear
3:52 AM 34.0 °F 28.0 °F 21.0 °F 59% 30.10 in 10.0 mi NNE 6.9 mph - N/A   Clear
4:52 AM 33.1 °F 27.7 °F 19.0 °F 56% 30.10 in 10.0 mi ENE 5.8 mph - N/A   Clear
5:52 AM 33.1 °F 26.9 °F 19.0 °F 56% 30.10 in 10.0 mi NE 6.9 mph - N/A   Clear
6:52 AM 32.0 °F 25.6 °F 19.0 °F 59% 30.11 in 10.0 mi ENE 6.9 mph - N/A   Clear
7:52 AM 33.1 °F 26.9 °F 19.9 °F 59% 30.11 in 10.0 mi ENE 6.9 mph - N/A   Clear
8:52 AM 35.1 °F 27.9 °F 21.9 °F 59% 30.11 in 10.0 mi ENE 9.2 mph - N/A   Clear
9:52 AM 37.0 °F 29.3 °F 21.0 °F 52% 30.11 in 10.0 mi East 11.5 mph - N/A   Clear
10:52 AM 39.0 °F 32.8 °F 23.0 °F 53% 30.08 in 10.0 mi ESE 9.2 mph - N/A   Clear
11:52 AM 41.0 °F 35.2 °F 24.1 °F 51% 30.04 in 10.0 mi ESE 9.2 mph - N/A   Clear
12:52 PM 42.1 °F 36.1 °F 27.0 °F 55% 29.98 in 10.0 mi ESE 10.4 mph - N/A   Clear
1:52 PM 44.1 °F 37.7 °F 30.0 °F 58% 29.93 in 10.0 mi ESE 12.7 mph - N/A   Clear
2:52 PM 44.1 °F 37.7 °F 30.9 °F 60% 29.87 in 10.0 mi ESE 12.7 mph - N/A   Clear
3:52 PM 45.0 °F 38.9 °F 33.1 °F 63% 29.83 in 10.0 mi SE 12.7 mph - N/A   Clear
4:52 PM 44.1 °F 40.1 °F 34.0 °F 68% 29.81 in 10.0 mi SE 6.9 mph - N/A   Clear
5:52 PM 43.0 °F 40.3 °F 34.0 °F 71% 29.80 in 10.0 mi SSE 4.6 mph - N/A   Scattered Clouds
6:52 PM 42.1 °F 40.2 °F 34.0 °F 73% 29.77 in 10.0 mi South 3.5 mph - N/A   Overcast
7:52 PM 44.1 °F 37.1 °F 35.1 °F 71% 29.82 in 10.0 mi NW 15.0 mph 20.7 mph N/A   Overcast
8:07 PM 42.8 °F 34.0 °F 30.2 °F 61% 29.83 in 10.0 mi NW 20.7 mph 28.8 mph N/A   Overcast
8:52 PM 41.0 °F 31.1 °F 21.9 °F 47% 29.86 in 10.0 mi NNW 23.0 mph - N/A   Partly Cloudy
9:52 PM 37.0 °F 26.7 °F 17.1 °F 44% 29.89 in 10.0 mi NW 19.6 mph 32.2 mph N/A   Clear
10:52 PM 35.1 °F 25.5 °F 16.0 °F 46% 29.91 in 10.0 mi NW 15.0 mph 21.9 mph N/A   Clear
11:52 PM 34.0 °F 23.8 °F 15.1 °F 46% 29.92 in 10.0 mi NW 16.1 mph 21.9 mph N/A   Clear